Tracking 20719 objects as of 26-May-2020
HD Live streaming from Space Station
objects crossing your sky now

IRIDIUM 168

Track IRIDIUM 168 now!
10-day predictions
IRIDIUM 168 is classified as:


NORAD ID: 43924
Int'l Code: 2019-002C
Perigee: 783.1 km
Apogee: 786.5 km
Inclination: 86.4 °
Period: 100.4 minutes
Semi major axis: 7155 km
RCS: Unknown
Launch date: January 11, 2019
Source: United States (US)
Launch site: AIR FORCE WESTERN TEST RANGE (AFWTR)
aabbcc
Your satellite tracking list
Your tracking list is empty




NASA's NSSDC Master Catalog

Two Line Element Set (TLE):
1 43924U 19002C   20146.16521711 +.00000074 +00000-0 +19464-4 0  9990
2 43924 086.4014 198.8286 0002371 101.1172 259.0290 14.34217347071635
Source of the keplerian elements: AFSPC